Regional Weather Roundup
Issued by NWS Cleveland, OH

Home | Current Version | Previous Version | Graphics & Text | Print | Product List | Glossary On
Versions: 1 2 3 4 5 6 7 8 9 10 11 12 13 14 15 16 17 18 19 20 21 22 23 24 25 26 27 28 29 30 31 32 33 34 35 36 37 38 39 40 41 42 43 44 45 46 47 48 49 50
616
ASUS41 KCLE 242100
RWRCLE
OHIO REGIONAL WEATHER ROUNDUP
NATIONAL WEATHER SERVICE WILMINGTON, OH
500 PM EDT WED MAY 24 2017

NOTE: "FAIR" INDICATES FEW OR NO CLOUDS BELOW 12,000 FEET WITH NO
SIGNIFICANT WEATHER AND/OR OBSTRUCTIONS TO VISIBILITY.

OHZ001>008-015>018-024>027-034-035-043-044-242200-
   NORTHWEST OHIO

CITY           SKY/WX    TMP DP  RH WIND       PRES   REMARKS
DEFIANCE       CLOUDY    60  57  89 N12       29.46F
FINDLAY        LGT RAIN  64  59  83 E12       29.45F
TOLEDO EXPRESS LGT RAIN  60  58  92 E18G26    29.49F FOG
TOLEDO EXEC    CLOUDY    61  59  93 NE15      29.51F FOG
LIMA           PTSUNNY   68  59  73 E15       29.43F
$$

OHZ009>014-019>023-028>033-038-089-242200-
   NORTHEAST OHIO

CITY           SKY/WX    TMP DP  RH WIND       PRES   REMARKS
CLE-HOPKINS    CLOUDY    63  59  87 SE12      29.54F
CLE-LAKEFRONT  CLOUDY    60  58  92 N7        29.52F FOG
CUY CO. ARPT   LGT RAIN  64  59  82 SE7       29.55F FOG
LORAIN-ELYRIA    N/A    N/A N/A N/A MISG      29.52F
ASHTABULA      CLOUDY    67  54  63 SE12G17   29.57F
AKRON-CANTON   CLOUDY    62  56  80 E14G22    29.52F
WOOSTER        NOT AVBL
MANSFIELD      CLOUDY    61  60  97 E9        29.50R FOG
YOUNGSTOWN     CLOUDY    60  57  89 E10       29.56F
$$

OHZ042-051>053-060>062-070>072-077>081-242200-
  SOUTHWEST OHIO

CITY           SKY/WX    TMP DP  RH WIND       PRES   REMARKS
CINC-COVINGTON LGT RAIN  64  63  96 NW7       29.36F
CINC-LUNKEN    CLOUDY    70  62  76 S5        29.35F
HAMILTON       LGT RAIN  66  62  87 W5        29.37F
DAYTON         NOT AVBL
WRIGHT-PAT AFB PTSUNNY   69  60  73 E14       29.40F
DAYTON GENERAL CLOUDY    69  56  62 E10       29.38F
WILMINGTON     CLOUDY    68  59  73 SE13G22   29.40F
$$

OHZ036-037-039>041-045>050-054>059-063>069-073>076-082>088-242200-
  CENTRAL AND SOUTHEAST OHIO

CITY           SKY/WX    TMP DP  RH WIND       PRES   REMARKS
COLUMBUS       LGT RAIN  66  61  84 E17G23    29.40F
OSU AIRPORT    PTSUNNY   66  60  81 E8        29.45F
BOLTON FIELD   NOT AVBL
RICKENBACK AFB NOT AVBL
NEWARK         LGT RAIN  67  59  75 SE8       29.47S
MARION         CLOUDY    64  59  83 E12       29.47F
LANCASTER      LGT RAIN  67  61  81 E8        29.44F
ZANESVILLE     LGT RAIN  69  61  75 SE10      29.47F
NEW PHILLY     CLOUDY    66  59  78 E10       29.50F
$$




USA.gov is the U.S. government's official web portal to all federal, state and local government web resources and services.